Location: Newark
(40.3500°N, 15.2333°E)
Time: 13:33:29
(UTC+00:00)

Altair - Pass Details

Date: 22 January 2020
Orbit: 1502 x 1682 km, 47.2° (Epoch: 22 February)

Event Time Altitude Azimuth Distance (km) Brightness Sun altitude
Rises 15:18:52 0° 298° (WNW) 4,923 10.6 6.8°
Reaches altitude 10° 15:22:13 10° 293° (WNW) 3,918 10.2 6.2°
Maximum altitude 15:31:33 46° 225° (SW) 2,085 9.1 4.7°
Drops below altitude 10° 15:40:34 10° 156° (SSE) 3,781 9.7 3.2°
Sets 15:43:45 0° 150° (SSE) 4,738 10.1 2.7°
